Home   Weather   Jaipur   Past weeks

Flag for India Past Weather in Jaipur, Rajasthan, India — Yesterday and Last 2 Weeks

Now
63 °F

Clear.


Feels Like: 63 °F
Forecast: 53 / 80 °F
Wind: No wind

Location: Jaipur / Sanganer

Current Time: Dec 10, 2016 at 1:16:19 am

Latest Report: Dec 10, 2016 at 12:00 am


Visibility: 2 mi

Pressure: 29.95 "Hg

Humidity: 68%

Dew Point: 52 °F

Location of JaipurLocation

Past Weather in Jaipur — Graph

°F

Jaipur Temperature Yesterday

Maximum temperature yesterday: 84 °F (at 2:30 pm)
Minimum temperature yesterday: 55 °F (at 7:00 am)
Average temperature yesterday: 68 °F

High & Low Weather Summary for the Past Weeks

 TemperatureHumidityPressure
High88 °F (Nov 29, 2:30 pm)100% (Dec 5, 12:00 am)30.24 "Hg (Dec 5, 12:00 am)
Low52 °F (Dec 4, 6:30 am)14% (Nov 25, 4:00 pm)29.92 "Hg (Nov 29, 2:30 pm)
Average70 °F42%30.05 "Hg
* Reported Nov 24 11:30 pm — Dec 9 11:30 pm, Jaipur, Weather by CustomWeather, © 2016

Note: Actual official high and low records may vary slightly from our data, if they occured in-between our weather recording intervals... More about our weather records

Advertising

Jaipur Weather History for the Previous 24 Hours

Scroll right to see more
 ConditionsComfort  
Time TempWeatherWind HumidityBarometerVisibility
11:30 pm
Fri, Dec 9
63 °FClear.No wind68%29.98 "Hg1 mi
11:00 pm64 °FClear.No wind60%29.98 "Hg1 mi
10:00 pm66 °FClear.No wind56%29.98 "Hg1 mi
9:30 pm68 °FClear.2 mph53%29.98 "Hg1 mi
9:00 pm68 °FClear.No wind53%29.98 "Hg1 mi
8:30 pm70 °FClear.No wind46%29.95 "Hg1 mi
8:00 pm68 °FClear.No wind46%29.95 "Hg1 mi
7:00 pm72 °FHaze.No wind38%29.95 "Hg1 mi
6:30 pm72 °FHaze.No wind38%29.95 "Hg2 mi
6:00 pm75 °FHaze.1 mph31%29.92 "Hg2 mi
5:30 pm79 °FHaze.2 mph26%29.92 "Hg2 mi
4:30 pm82 °FHaze.6 mph21%29.92 "Hg2 mi
3:00 pm82 °FHaze.7 mph23%29.92 "Hg2 mi
2:30 pm84 °FHaze.5 mph22%29.92 "Hg3 mi
2:00 pm82 °FHaze.6 mph25%29.95 "Hg3 mi
1:30 pm81 °FHaze.7 mph28%29.95 "Hg3 mi
1:00 pm81 °FHaze.6 mph28%29.98 "Hg3 mi
12:30 pm79 °FHaze.5 mph32%29.98 "Hg3 mi
12:00 pm77 °FHaze.6 mph34%30.01 "Hg2 mi
11:00 am73 °FHaze.5 mph44%30.04 "Hg2 mi
10:00 am72 °FClear.3 mph53%30.04 "Hg1 mi
9:30 am70 °FClear.2 mph60%30.04 "Hg1 mi
9:00 am70 °FClear.No wind57%30.04 "Hg1 mi
8:30 am64 °FFog.No wind78%30.04 "Hg1 mi
8:00 am59 °FFog.No wind88%30.04 "Hg1 mi
7:00 am55 °FFog.No wind94%30.01 "Hg1 mi
6:30 am57 °FFog.No wind88%29.98 "Hg1 mi
6:00 am57 °FFog.No wind88%29.98 "Hg1 mi
5:30 am57 °FFog.No wind94%29.98 "Hg1 mi
5:00 am57 °FFog.No wind100%29.98 "Hg1 mi
4:00 am57 °FFog.No wind88%29.98 "Hg1 mi
3:00 am59 °FFog.No wind88%29.98 "Hg1 mi
2:30 am59 °FFog.No wind88%29.98 "Hg1 mi
2:00 am59 °FFog.No wind88%29.98 "Hg1 mi
1:00 am59 °FFog.No wind88%30.01 "Hg1 mi
Weather by CustomWeather, © 2016

See weather overviewHow to use our weather pages